Location: Dumbr?vi?a
(45.8833°N, 22.7000°E)
Time: 17:15:38
(UTC+00:00)

Cosmos 2278 Rocket - Pass Details

Date: 03 March 2021
Orbit: 841 x 845 km, 71.0° (Epoch: 15 April)

Event Time Altitude Azimuth Distance (km) Brightness Sun altitude
Rises 20:25:48 0° 324° (NW) 3,413 6.2 -41.0°
Reaches altitude 10° 20:28:34 10° 313° (NW) 2,473 5.3 -41.3°
Enters shadow 20:30:37 19° 297° (WNW) 1,895 4.5 -41.6°
